GW5962 Weather Reports


Display with metric or nautical units.
time (UTC)temp
F
wind
direction
speed
MPH
gust
MPH
rain 1hr
in
rain 24hr
in
rain mn
in
humidity
%
barometer
mb
20260505022023 71 0.0 0.0 0.00 0.00 0.00 85 1026.2
20260505021040 71 0.0 0.0 0.00 0.00 0.00 86 1026.0
20260505020017 70 0.0 0.0 0.00 0.00 0.00 87 1026.1
20260505015115 70 0.0 0.0 0.00 0.00 0.00 86 1026.0
20260505014112 71 0.0 0.0 0.00 0.00 0.00 84 1026.0
20260505013109 71 0.0 0.0 0.00 0.00 0.00 85 1025.9
20260505012106 71 0.0 0.0 0.00 0.00 0.00 85 1025.9
20260505011124 71 0.0 0.0 0.00 0.00 0.00 86 1025.8
20260505010121 70 0.0 0.0 0.00 0.00 0.00 86 1025.8
20260505005058 70 0.0 0.0 0.00 0.00 0.00 87 1025.7
20260505004115 70 0.0 0.0 0.00 0.00 0.00 87 1025.9
20260505003053 70 0.0 0.0 0.00 0.00 0.00 88 1025.8
20260505002109 70 0.0 0.0 0.00 0.00 0.00 89 1025.7
20260505001047 70 0.0 0.0 0.00 0.00 0.00 90 1025.8
20260505000044 70 0.0 0.0 0.00 0.00 0.00 88 1025.8
20260504235041 70 0.0 0.0 0.00 0.00 0.00 90 1025.8
20260504234038 70 0.0 0.0 0.00 0.00 0.00 91 1025.7
20260504233036 70 0.0 0.0 0.00 0.00 0.00 91 1025.7
20260504232032 70 0.0 0.0 0.00 0.00 0.00 91 1025.6
20260504231030 70 0.0 0.0 0.00 0.00 0.00 90 1025.7
20260504230027 70 0.0 0.0 0.00 0.00 0.00 89 1025.5
20260504225025 71 0.0 0.0 0.00 0.00 0.00 89 1025.4
20260504224022 71 0.0 0.0 0.00 0.00 0.00 88 1025.3
20260504223019 71 0.0 0.0 0.00 0.00 0.00 87 1025.3
20260504222016 71 0.0 0.0 0.00 0.00 0.00 86 1025.3
20260504221134 71 0.0 0.0 0.00 0.00 0.00 86 1025.2
20260504220111 71 0.0 0.0 0.00 0.00 0.00 87 1025.3
20260504215108 71 0.0 0.0 0.00 0.00 0.00 86 1025.3
20260504214105 71 0.0 0.0 0.00 0.00 0.00 86 1025.4
20260504213122 71 0.0 0.0 0.00 0.00 0.00 85 1025.2
20260504212119 71 0.0 1.0 0.00 0.00 0.00 85 1025.2
20260504211056 72 0.0 1.0 0.00 0.00 0.00 82 1025.3
20260504210054 72 0.0 1.0 0.00 0.00 0.00 80 1025.1
20260504205111 73 0.0 0.0 0.00 0.00 0.00 75 1025.1
20260504204048 73 0.0 0.0 0.00 0.00 0.00 73 1025.1
20260504203045 74 0.0 0.0 0.00 0.00 0.00 72 1024.7
20260504202045 74 0.0 0.0 0.00 0.00 0.00 71 1024.4
20260504201040 75 0.0 0.0 0.00 0.00 0.00 70 1024.3
20260504200037 75 0.0 0.0 0.00 0.00 0.00 70 1024.4
20260504195034 76 0.0 0.0 0.00 0.00 0.00 69 1024.1
20260504194031 76 0.0 0.0 0.00 0.00 0.00 67 1024.0
20260504193048 77 0.0 0.0 0.00 0.00 0.00 65 1023.9
20260504192025 79 0.0 0.0 0.00 0.00 0.00 61 1023.9
20260504191023 81 0.0 0.0 0.00 0.00 0.00 60 1023.8
20260504190020 81 0.0 0.0 0.00 0.00 0.00 60 1023.8
20260504185017 80 0.0 0.0 0.00 0.00 0.00 61 1023.9
20260504184115 81 0.0 0.0 0.00 0.00 0.00 58 1024.0
20260504183112 81 0.0 0.0 0.00 0.00 0.00 56 1024.2
20260504182109 82 0.0 0.0 0.00 0.00 0.00 52 1024.3
20260504181106 84 0.0 0.0 0.00 0.00 0.00 50 1024.2
20260504180104 84 0.0 0.0 0.00 0.00 0.00 52 1024.1
20260504175101 82 0.0 0.0 0.00 0.00 0.00 52 1024.3
20260504174058 82 0.0 0.0 0.00 0.00 0.00 52 1024.3
20260504173055 82 0.0 0.0 0.00 0.00 0.00 55 1024.7
20260504172052 80 0.0 0.0 0.00 0.00 0.00 57 1025.0
20260504171050 79 0.0 0.0 0.00 0.00 0.00 60 1025.2
20260504151016 77 0.0 0.0 0.00 0.00 0.00 54 1026.7
20260504150114 76 0.0 1.0 0.00 0.00 0.00 53 1026.9
20260504141100 80 0.0 0.0 0.00 0.00 0.00 50 1027.7
20260504110107 60 0.0 0.0 0.00 0.00 0.00 99 1027.4
20260504081039 49 0.0 0.0 0.00 0.00 0.00 99 1027.4
20260504045044 50 0.0 0.0 0.00 0.00 0.00 97 1029.1
20260504044021 51 0.0 0.0 0.00 0.00 0.00 96 1029.3
20260504043018 51 0.0 0.0 0.00 0.00 0.00 96 1029.3
20260504042016 51 0.0 0.0 0.00 0.00 0.00 94 1029.4
20260504041113 51 0.0 0.0 0.00 0.00 0.00 94 1029.5
20260504040110 51 0.0 0.0 0.00 0.00 0.00 93 1029.7
20260504035108 52 0.0 0.0 0.00 0.00 0.00 93 1029.8
20260504034105 52 0.0 0.0 0.00 0.00 0.00 92 1029.7
20260504033122 52 0.0 0.0 0.00 0.00 0.00 92 1029.9
20260504032059 53 0.0 0.0 0.00 0.00 0.00 91 1030.0
20260504031116 53 0.0 0.0 0.00 0.00 0.00 91 1030.0
20260504030054 53 0.0 0.0 0.00 0.00 0.00 90 1030.0
20260504025050 53 0.0 0.0 0.00 0.00 0.00 89 1029.9
20260504024048 54 0.0 0.0 0.00 0.00 0.00 88 1030.0
20260504023045 54 0.0 0.0 0.00 0.00 0.00 89 1030.1